Location: Asheville, NC
(35.6000°N, 82.5500°W)
Time: 03:58:22
(UTC-04:00)

Hubble Space Telescope - Pass Details

Date: 16 December 2017
Orbit: 537 x 541 km, 28.5° (Epoch: 16 July)

Event Time Altitude Azimuth Distance (km) Brightness Sun altitude
Rises 18:23:27 0° 259° (W) 2,675 6.2 -12.8°
Reaches altitude 10° 18:26:05 10° 244° (WSW) 1,784 4.9 -13.3°
Maximum altitude 18:29:16 22° 193° (SSW) 1,206 2.9 -13.9°
Drops below altitude 10° 18:32:28 10° 142° (SE) 1,783 3.2 -14.6°
Enters shadow 18:33:43 - 133° (SE) 2,188 3.6 -14.8°
